This is the latest recevied weather packets stored in our database for station/object SP4IM-13. If no packets are shown the sender has not sent any weather packets the latest 1 day(s).
| Time | Temp. | Humidity | Pressure | Rain* | Wind** | Luminosity | Snow |
|---|---|---|---|---|---|---|---|
| 1777978802 | 26.67° C | 42% | 1007 hPa | - | 0.89 m/s, 270° | - | - |
| 1777978202 | 26.67° C | 42% | 1007 hPa | - | 0.89 m/s, 270° | - | - |
| 1777977603 | 26.67° C | 44% | 1007 hPa | - | 0.89 m/s, 129° | - | - |
| 1777977002 | 26.11° C | 44% | 1007 hPa | - | 0.89 m/s, 90° | - | - |
| 1777976402 | 25.56° C | 45% | 1007 hPa | - | 0.45 m/s, 8° | - | - |
| 1777975802 | 25.56° C | 45% | 1007 hPa | - | 0.89 m/s, 110° | - | - |
| 1777975202 | 25.56° C | 46% | 1007 hPa | - | 0.89 m/s, 114° | - | - |
| 1777974602 | 25° C | 46% | 1007 hPa | - | 0.89 m/s, 117° | - | - |
| 1777974003 | 25° C | 46% | 1008 hPa | - | 1.34 m/s, 117° | - | - |
| 1777973402 | 25° C | 47% | 1008 hPa | - | 0.89 m/s, 100° | - | - |
| 1777972802 | 25° C | 48% | 1008 hPa | - | 0.89 m/s, 119° | - | - |
| 1777972202 | 25° C | 48% | 1008 hPa | - | 1.34 m/s, 110° | - | - |
| 1777971602 | 25° C | 48% | 1008 hPa | - | 1.34 m/s, 122° | - | - |
| 1777971002 | 25° C | 47% | 1008 hPa | - | 0.89 m/s, 121° | - | - |
| 1777970402 | 25° C | 47% | 1008 hPa | - | 0.89 m/s, 118° | - | - |
| 1777969802 | 25.56° C | 47% | 1008 hPa | - | 0.89 m/s, 135° | - | - |
| 1777969202 | 23.89° C | 47% | 1008 hPa | - | 0.89 m/s, 133° | - | - |
| 1777968603 | 22.22° C | 46% | 1008 hPa | - | 0.45 m/s, 151° | - | - |
| 1777968003 | 20.56° C | 46% | 1008 hPa | - | 0.89 m/s, 113° | - | - |
| 1777967405 | 19.44° C | 45% | 1008 hPa | - | 0.89 m/s, 135° | - | - |
| 1777966804 | 18.89° C | 44% | 1008 hPa | - | 0.89 m/s, 135° | - | - |
| 1777966205 | 18.89° C | 44% | 1008 hPa | - | 1.34 m/s, 126° | - | - |
| 1777965603 | 18.33° C | 44% | 1009 hPa | - | 1.34 m/s, 120° | - | - |
| 1777965008 | 18.33° C | 44% | 1009 hPa | - | 0.89 m/s, 120° | - | - |
| 1777964405 | 17.78° C | 42% | 1009 hPa | - | 1.34 m/s, 121° | - | - |
* Rain since midnight (hover to see other rain measurements)
** Current wind speed in m/s (hover to see current wind gust speed)